Theta_e
309 309 310 310 311 311 311 311 311 311 310 308 307 307 309 310 308 306 304 307 301 296 300 302 302 299 300 299 294 300 300 302 301 293 294 293 288 290 290 293 292 291 290 290 292 291 287 301 301 296 298 303 307 312
308 308 308 309 310 310 310 310 310 310 309 307 307 307 308 309 309 306 301 306 303 294 298 305 305 306 304 303 299 301 300 301 302 297 297 297 292 291 291 288 298 290 290 288 291 292 299 302 300 303 304 308 311 310
309 309 308 308 308 309 309 310 310 310 308 307 306 306 307 308 310 306 303 303 297 294 298 303 302 307 308 305 307 297 304 305 305 306 299 298 293 291 289 289 290 296 296 293 294 299 296 302 302 302 305 310 311 310
308 308 308 308 308 309 309 309 310 308 306 306 306 306 307 308 310 309 303 303 298 294 292 301 308 306 309 309 307 305 305 309 307 304 298 297 296 295 291 291 291 292 293 291 295 297 297 302 300 300 304 310 309 310
307 307 308 308 308 308 309 309 308 306 305 305 306 307 307 309 309 309 307 304 302 295 295 298 304 307 308 309 307 307 305 303 302 299 298 296 300 299 294 293 292 291 291 289 289 295 295 295 300 302 304 308 309 309
305 307 307 308 308 308 308 307 306 306 305 306 307 307 308 308 305 304 299 304 303 301 293 293 305 304 307 308 309 308 306 304 303 301 300 302 300 297 291 289 292 293 296 298 294 299 299 300 301 303 305 307 307 308
305 307 307 308 308 307 307 307 306 306 306 306 307 308 308 306 305 299 301 302 303 301 294 292 298 304 305 307 309 307 307 305 304 302 300 301 298 298 293 289 293 295 296 298 299 299 298 297 296 301 306 306 306 306
305 306 307 307 307 307 306 306 306 306 306 307 307 307 306 305 303 300 306 303 304 298 297 290 296 300 306 303 304 311 304 304 304 303 303 300 299 296 289 294 296 296 296 298 297 298 296 297 298 303 305 306 303 302
304 306 306 306 306 306 306 306 305 305 306 306 305 303 302 300 297 302 303 304 304 298 292 294 294 296 307 303 304 305 308 300 307 301 302 301 300 294 294 294 294 295 294 295 298 297 296 294 294 296 299 303 301 301
304 305 305 305 306 306 306 305 304 305 305 304 301 300 299 302 305 304 299 294 293 294 294 291 300 296 301 303 301 300 305 303 298 301 302 298 300 298 297 297 297 296 296 298 295 291 292 293 292 293 294 296 299 303
303 305 305 305 305 305 305 305 304 305 303 301 299 299 305 304 302 298 295 291 292 291 296 297 299 297 304 298 300 305 300 302 294 298 298 298 298 298 299 297 297 297 296 295 294 293 293 293 292 292 292 294 295 297
303 304 304 304 304 304 304 304 304 303 304 301 302 303 305 299 295 293 293 294 292 292 298 298 299 301 305 306 301 303 297 299 290 303 297 294 299 298 299 298 297 297 296 295 295 293 293 292 293 292 292 292 293 294
302 304 304 303 303 303 303 303 304 302 303 302 299 296 296 296 287 288 285 290 292 299 301 302 301 305 305 305 302 300 293 294 304 296 295 298 300 298 299 299 298 297 296 294 294 293 293 292 292 291 291 291 291 291
302 303 304 303 302 302 303 303 304 300 299 293 291 286 290 289 291 293 294 297 301 304 304 304 302 302 304 300 301 293 299 300 292 290 292 300 300 297 300 297 298 295 295 295 294 293 292 291 290 290 290 291 290 288
302 303 303 302 302 302 302 303 303 300 296 290 292 285 291 296 299 299 300 300 302 304 303 303 302 302 300 296 299 297 292 289 293 294 300 302 302 299 299 298 299 299 299 298 298 297 296 295 292 290 289 289 288 288
302 302 301 302 302 302 302 303 300 298 294 291 291 290 295 294 295 297 298 298 304 305 305 304 298 295 294 297 293 291 290 289 297 302 303 304 302 301 300 299 299 300 300 300 299 298 297 296 294 293 293 292 289 288
301 298 301 302 302 302 302 298 296 291 291 290 291 297 296 295 296 298 300 301 306 303 298 299 293 292 300 294 292 297 295 300 303 304 305 305 303 301 300 300 300 300 300 300 299 298 297 296 296 294 291 289 290 289
297 300 301 302 301 300 297 298 295 291 287 292 291 294 297 298 297 298 299 301 300 300 300 296 300 294 292 290 295 300 305 305 305 306 305 305 305 302 301 301 301 301 301 300 299 298 297 296 295 293 291 289 288 287
299 300 301 301 300 295 291 292 295 287 289 293 295 297 297 297 299 300 300 301 302 304 302 300 294 293 295 299 300 303 305 306 305 303 304 306 305 302 301 302 302 301 301 301 300 298 298 298 296 294 291 290 288 287
298 299 300 301 301 293 291 291 295 291 288 293 296 295 297 296 298 299 299 299 299 298 294 294 295 298 300 304 305 305 305 308 304 301 301 303 303 303 302 302 301 302 301 300 300 295 298 296 296 295 293 291 289 288
297 297 298 300 296 294 292 291 291 292 292 292 296 296 294 298 296 296 297 300 297 295 294 297 299 302 305 305 306 308 306 306 304 303 301 300 302 301 301 301 302 300 299 299 298 297 296 298 296 295 293 294 293 291
296 298 294 296 289 290 291 293 290 294 292 293 294 296 294 293 294 296 301 297 296 298 299 299 302 304 302 303 305 307 307 307 306 301 297 298 299 300 300 301 300 298 299 299 300 299 299 299 297 296 295 294 293 293
298 296 292 292 289 287 288 295 290 292 289 291 295 291 292 293 296 301 295 297 298 301 302 302 304 305 304 305 306 306 308 306 302 302 301 300 301 302 301 301 301 299 298 300 301 301 300 293 293 296 296 294 295 293
298 291 288 287 288 285 290 288 292 290 290 290 288 287 290 293 299 295 292 296 300 303 302 302 303 302 304 305 304 305 306 305 301 301 301 300 299 301 302 301 302 302 302 301 301 301 301 299 294 296 296 296 295 293
286 287 288 284 289 286 285 286 286 287 286 288 287 288 291 296 291 291 292 297 302 302 302 303 303 303 302 302 306 307 307 305 304 300 302 303 302 302 301 302 302 303 304 301 300 301 301 300 298 298 297 297 295 294
283 286 285 286 286 286 286 284 285 286 287 287 289 293 296 292 289 289 296 301 304 305 304 304 304 303 304 306 306 306 306 308 307 303 302 304 303 301 300 300 300 301 304 303 302 301 301 301 299 298 297 296 289 294
283 285 290 294 291 290 288 290 292 290 286 286 289 290 291 287 288 295 303 304 305 307 309 308 306 306 306 306 309 310 309 309 307 306 306 305 305 306 305 302 301 302 304 304 304 304 303 302 301 300 299 299 298 296
287 288 285 289 289 291 287 288 288 288 289 293 293 288 287 289 291 297 301 305 307 309 308 308 309 309 308 309 309 308 308 309 309 308 307 307 307 307 307 306 307 291 306 307 306 306 304 303 301 301 300 299 299 298
287 291 291 287 288 289 289 288 290 294 297 296 292 292 293 299 302 301 302 306 307 306 305 305 306 309 309 309 308 308 309 308 304 301 301 301 303 305 309 309 309 308 307 305 288 295 302 302 302 301 300 301 301 299
288 292 288 288 286 287 291 294 294 298 299 299 300 300 301 302 304 303 306 306 304 303 305 305 307 307 306 305 304 304 307 309 308 306 303 302 305 308 308 307 308 308 305 303 303 300 286 296 292 300 300 302 300 297
293 292 289 289 288 292 295 297 299 299 299 299 300 298 297 300 303 301 303 305 304 305 304 304 305 306 304 305 304 302 300 306 305 304 305 306 304 303 305 304 305 306 304 304 302 300 299 300 301 301 301 300 299 296
291 289 289 287 290 295 299 296 295 295 296 296 297 300 299 298 295 299 299 303 300 301 297 302 304 304 306 306 306 305 296 304 304 301 302 304 305 305 305 305 306 306 304 300 299 300 300 301 302 302 301 300 300 299
291 291 291 290 290 291 295 294 293 293 295 294 296 298 299 297 291 299 303 302 303 302 304 304 304 304 304 303 302 300 297 298 290 285 285 286 286 291 298 299 300 301 301 304 305 303 301 300 301 301 301 300 299 299
Wind_Speed
17 15 17 18 17 17 16 14 13 11 10 10 9 8 11 8 7 4 4 3 5 5 14 10 8 13 10 8 8 12 8 3 6 8 6 6 3 4 4 6 9 6 7 4 6 7 6 18 12 6 8 10 11 4
16 16 16 17 17 18 17 15 14 12 9 9 10 8 9 11 8 7 3 2 3 5 12 22 22 21 22 19 11 3 6 6 4 4 4 6 2 3 6 3 8 3 4 5 4 3 7 10 9 8 10 3 3 6
15 16 16 17 17 17 17 17 15 11 8 8 9 9 8 11 7 11 3 1 2 4 12 8 5 4 8 16 13 6 4 4 3 4 4 3 5 0 3 3 5 4 7 4 8 7 16 9 17 19 17 2 6 9
17 18 18 18 17 17 17 17 14 8 7 8 9 9 8 10 8 11 3 3 2 2 7 2 4 10 7 9 14 17 9 3 6 4 3 4 4 3 1 3 4 3 11 10 6 9 16 5 16 19 20 8 9 8
17 19 18 18 17 17 16 15 8 5 7 9 11 8 10 10 6 6 6 5 5 3 7 11 20 0 6 7 11 13 13 11 7 3 4 3 3 3 2 2 1 3 5 5 4 12 6 14 18 19 15 10 6 8
20 19 17 16 16 15 10 5 6 8 10 10 10 10 8 5 4 2 3 5 7 5 4 6 7 5 5 6 6 9 8 7 6 4 3 2 2 3 3 3 2 4 8 7 6 16 15 14 16 14 11 10 9 6
17 18 15 13 12 9 8 9 9 9 9 11 12 10 6 9 4 4 6 5 8 6 4 7 5 3 4 5 5 4 7 4 4 3 3 3 2 4 2 2 5 7 8 6 11 14 6 10 10 15 9 8 10 9
17 17 14 12 11 11 10 9 8 9 9 9 8 3 5 5 5 5 6 13 7 3 3 5 6 5 1 4 4 4 4 4 5 1 2 3 3 2 3 4 5 6 9 4 8 9 7 8 10 9 6 5 8 7
17 14 13 13 13 10 10 9 6 9 9 8 3 2 3 4 4 1 9 14 3 4 4 4 5 3 0 4 3 5 4 4 3 4 2 3 2 3 1 4 4 6 6 8 7 8 9 9 9 11 11 6 6 6
18 14 14 15 13 11 9 8 8 8 8 6 3 4 4 3 13 13 5 5 3 3 4 5 5 7 4 2 3 3 3 2 3 4 3 4 1 4 3 4 4 4 7 11 5 7 9 9 9 10 10 9 8 5
19 16 15 15 14 12 11 10 9 5 6 3 4 3 6 8 4 4 4 5 5 6 7 7 8 8 4 6 2 1 3 1 4 5 4 3 2 5 7 6 5 5 6 7 7 7 7 7 7 6 7 8 8 8
18 17 15 14 11 10 11 10 8 5 3 2 3 2 3 5 5 6 5 3 6 6 6 6 5 6 2 3 5 3 4 2 3 2 3 3 6 8 7 7 7 6 5 6 8 9 9 10 9 8 7 7 8 8
19 18 14 14 12 12 11 9 9 5 4 0 3 3 4 5 5 8 8 6 6 6 6 7 6 4 5 5 5 3 5 2 0 4 2 5 9 8 7 7 7 6 7 7 7 8 9 11 12 11 10 9 9 10
19 18 15 14 12 12 12 12 10 8 2 3 5 6 8 8 8 7 9 4 3 1 3 5 4 3 4 4 3 4 1 2 4 4 1 6 11 9 8 7 7 6 8 9 8 8 8 8 9 10 10 10 11 11
19 19 17 14 14 13 13 13 17 4 3 4 5 7 10 8 2 3 5 5 5 4 5 3 4 4 4 4 4 3 4 5 3 2 3 7 13 11 11 10 11 10 9 9 10 8 8 9 8 9 8 9 10 10
19 16 11 15 16 15 15 11 4 2 3 4 7 6 6 6 7 7 6 7 3 5 5 4 4 4 5 3 5 7 3 2 2 3 6 10 14 12 13 12 10 8 8 8 7 8 7 8 8 9 9 10 9 8
17 5 11 17 18 17 16 4 3 5 6 5 7 8 9 7 6 4 4 4 1 4 5 4 6 5 2 4 5 4 3 2 3 4 4 10 14 15 14 12 11 9 8 8 7 7 8 7 7 7 8 7 9 9
8 6 13 11 14 9 1 4 5 5 7 8 7 8 8 6 7 7 6 5 5 6 5 4 3 5 4 4 3 3 1 4 4 3 5 11 13 15 13 13 11 9 8 7 6 7 7 6 6 6 8 7 7 8
9 9 9 11 9 5 5 5 3 3 8 6 8 9 8 7 7 8 8 5 6 4 4 4 6 6 8 4 5 2 0 2 3 5 7 12 13 14 13 12 10 9 9 8 7 5 5 4 6 6 6 6 5 5
12 13 12 16 12 3 5 4 3 4 4 5 8 10 8 8 8 8 8 9 8 6 7 7 10 8 4 2 2 3 3 1 4 6 8 9 11 14 13 11 8 10 9 9 7 5 7 6 6 6 6 7 6 5
10 6 8 6 2 3 1 3 5 3 4 5 5 6 7 7 8 9 9 7 9 8 11 11 12 10 7 6 4 3 4 4 4 4 9 10 12 11 11 9 10 9 9 8 8 6 4 6 6 6 7 6 6 6
4 9 2 3 3 3 2 4 2 2 3 5 5 6 6 6 7 7 5 9 8 10 11 11 11 8 9 9 6 7 5 7 6 5 2 11 12 11 11 10 10 9 9 8 7 8 6 6 6 6 6 7 5 6
7 3 2 2 3 3 2 4 5 5 5 4 3 4 4 5 4 3 5 7 10 10 10 11 11 11 9 9 5 5 7 8 5 6 9 10 11 10 10 10 9 9 9 8 6 6 6 8 6 6 7 7 6 6
5 4 3 3 5 5 4 5 3 3 4 6 4 7 7 4 4 5 7 8 7 7 7 10 9 8 6 9 7 6 7 5 5 4 5 9 10 11 10 9 9 8 7 8 7 6 7 8 9 7 8 7 7 6
4 6 4 4 3 5 6 6 6 4 6 6 5 5 4 4 4 3 4 4 4 5 6 7 8 9 8 7 6 8 11 10 9 8 9 10 10 9 9 9 8 8 7 8 9 9 8 8 9 8 8 8 8 9
3 4 7 9 5 5 6 5 7 8 5 4 6 3 3 5 5 5 3 2 1 3 6 6 7 7 6 8 10 9 10 8 8 8 8 9 10 10 10 10 9 8 8 8 9 10 9 9 9 11 10 10 7 8
4 4 4 2 3 4 4 4 4 3 4 6 4 5 4 5 4 3 3 6 3 3 3 4 4 5 6 7 7 8 8 8 8 8 9 8 9 9 9 9 10 8 11 10 9 9 10 10 10 11 10 9 11 10
3 3 5 7 4 4 4 3 4 7 6 4 3 5 3 2 4 3 4 5 4 3 5 5 3 3 6 7 8 9 9 8 7 9 9 7 5 5 5 5 4 7 4 6 7 6 7 8 9 11 12 11 9 10
4 4 5 7 5 5 5 4 4 4 3 3 2 2 3 3 2 1 3 3 3 3 5 6 6 6 7 9 6 4 7 8 12 16 16 11 9 6 5 5 6 6 3 4 3 1 7 7 8 9 11 10 8 10
5 5 5 6 5 6 5 5 4 3 2 4 3 2 1 3 2 2 3 1 2 1 2 6 6 7 8 9 9 7 6 5 4 2 7 7 7 7 6 5 5 6 6 6 7 8 5 7 6 8 9 8 8 10
4 7 4 5 4 4 6 5 4 5 4 2 3 3 2 2 3 3 3 2 1 3 4 6 7 7 7 9 9 8 4 3 8 8 6 7 7 6 6 5 3 4 4 6 7 8 8 9 9 11 11 10 11 11
5 7 5 6 5 5 2 3 4 4 3 4 4 3 4 3 3 2 3 3 3 4 2 5 8 9 8 5 6 6 7 7 7 7 7 7 7 7 6 5 5 4 5 5 4 4 9 10 9 11 11 12 11 14
6 6 6 5 4 4 4 4 1 2 2 2 3 3 3 3 2 2 2 3 3 3 5 6 7 8 10 10 11 10 10 10 12 10 10 10 8 6 6 5 4 3 1 1 3 5 8 11 10 10 11 11 10 8
Wind_Direction
299 303 299 296 288 281 275 272 269 264 267 287 291 299 298 303 193 217 297 221 262 267 292 271 279 274 275 250 282 341 297 37 343 6 336 358 321 352 284 304 328 332 321 337 330 3 17 355 352 19 298 287 303 253
300 301 297 295 293 286 278 273 264 253 257 276 284 290 289 295 210 194 268 163 233 244 278 303 282 269 254 259 293 275 320 302 358 330 331 318 317 330 320 301 359 340 7 294 320 13 320 324 338 342 336 317 170 99
294 292 291 293 290 285 280 276 262 243 258 271 281 290 290 288 250 188 261 160 188 275 280 239 238 190 225 230 233 262 154 333 150 358 301 288 307 19 316 347 300 338 16 272 313 27 335 343 357 357 343 354 100 137
293 291 291 290 290 286 280 274 258 243 262 274 279 283 278 278 259 202 218 183 210 296 279 314 197 286 300 210 218 223 267 258 296 267 269 278 300 143 262 297 281 342 310 319 287 17 328 315 348 347 340 33 102 123
298 297 293 291 287 285 280 273 236 238 252 259 270 279 274 287 217 240 243 198 191 226 313 305 305 306 211 228 225 218 229 241 276 273 229 258 338 287 262 231 220 342 341 345 307 329 318 297 323 335 340 19 75 114
300 295 291 291 291 288 283 244 240 235 254 271 276 284 284 176 169 286 272 154 190 192 277 288 7 272 234 254 244 210 204 217 245 268 271 241 64 280 296 291 60 310 299 313 302 317 307 301 316 348 342 32 34 87
296 294 289 293 296 286 280 266 246 242 252 271 283 284 205 160 180 232 335 35 153 174 250 278 278 176 271 250 187 181 183 207 238 255 245 286 191 254 254 276 4 337 329 329 336 337 7 354 324 319 358 61 76 61
296 291 285 284 282 281 281 266 247 252 255 273 292 214 191 175 237 258 227 174 178 224 246 268 273 253 152 248 211 179 182 220 207 242 210 244 162 235 255 307 336 351 331 321 355 357 340 324 343 7 7 57 86 90
289 285 284 283 276 271 272 259 247 262 267 283 171 161 180 208 218 73 97 152 193 281 277 243 271 321 164 254 266 195 239 227 157 236 211 245 186 232 275 324 0 350 341 310 312 353 16 22 16 22 25 44 87 107
290 280 277 279 273 264 252 233 242 258 281 151 196 231 213 172 116 129 148 149 191 234 240 253 256 263 298 255 260 267 207 268 241 88 135 230 206 100 129 83 43 9 12 5 14 5 5 21 21 28 36 30 21 121
292 279 269 276 274 262 248 229 228 238 140 199 219 234 77 127 197 213 212 200 171 227 206 225 235 246 200 263 314 218 317 268 261 109 270 186 198 134 131 120 98 68 65 59 63 48 40 30 23 28 38 50 52 41
283 281 268 270 262 261 253 218 229 189 224 68 320 246 186 205 207 236 204 214 208 237 183 221 204 222 220 235 255 189 269 198 259 133 249 226 94 134 143 128 115 102 73 65 61 58 49 47 44 47 44 50 58 64
280 272 262 260 248 248 238 224 220 144 134 224 242 246 206 185 231 222 199 203 218 199 190 191 195 217 185 224 248 242 228 244 272 223 251 49 120 158 149 134 118 112 102 87 83 69 62 55 47 52 55 50 59 60
274 266 254 249 236 241 233 232 192 145 165 213 208 219 220 189 229 199 223 258 178 201 193 203 230 233 205 208 244 250 196 231 243 218 170 133 149 154 142 141 157 127 122 107 97 91 78 72 62 51 45 42 54 56
269 257 247 235 224 234 238 238 170 178 148 228 225 234 221 242 263 247 272 266 220 254 216 218 234 236 209 232 233 237 217 236 254 52 93 122 144 156 151 155 144 140 137 126 129 119 113 103 90 79 62 56 49 47
264 255 233 210 215 219 226 197 143 140 186 234 233 254 249 265 243 215 225 237 226 243 248 227 245 230 217 225 207 208 239 248 67 60 89 139 148 152 148 145 146 137 124 115 107 106 104 95 88 84 87 84 76 65
255 237 181 205 204 208 199 140 157 167 214 229 233 233 267 298 296 296 265 255 327 244 226 220 219 211 176 217 214 202 219 55 68 95 127 149 156 153 152 151 150 145 137 124 121 110 101 106 107 98 81 73 86 89
235 198 206 227 201 139 75 205 164 180 226 237 244 234 218 247 269 259 246 238 228 232 231 248 294 227 226 226 204 169 143 93 73 88 136 152 157 156 160 159 160 157 151 142 134 125 131 126 108 96 107 110 101 97
221 210 231 250 176 142 156 180 196 209 226 260 241 254 258 258 253 258 264 230 222 260 262 229 238 235 231 246 271 229 131 336 114 126 136 157 159 161 162 160 162 160 155 151 154 151 121 89 99 119 126 132 126 130
208 242 240 209 154 131 145 153 198 219 235 246 236 249 241 251 257 238 234 225 208 211 219 235 245 251 237 200 6 334 337 119 151 148 153 160 165 163 166 163 159 152 154 147 137 133 133 128 124 130 133 137 140 147
191 218 238 170 113 67 177 173 192 226 233 239 242 242 250 226 233 230 227 198 207 220 228 235 249 252 257 261 279 207 230 228 208 193 170 168 168 168 162 164 157 165 160 161 157 134 192 122 130 128 149 151 135 144
185 160 85 129 118 160 183 193 219 181 220 235 232 223 250 234 234 224 222 207 227 227 229 234 229 237 241 234 238 216 201 180 179 129 163 151 172 170 170 164 173 171 170 166 163 161 148 136 144 150 148 132 160 148
109 119 146 128 140 168 157 200 214 214 239 226 216 244 232 228 228 171 230 224 238 239 234 233 233 232 236 244 219 211 179 169 160 177 162 174 189 173 171 169 178 177 172 168 169 162 150 124 158 163 136 164 151 143
251 147 147 167 192 158 158 181 218 233 239 233 249 251 257 249 198 232 248 244 237 229 234 226 213 221 201 219 216 188 169 160 123 176 182 176 174 175 175 171 179 180 185 167 177 172 156 175 150 175 168 171 167 169
151 164 200 158 173 153 181 173 185 220 241 212 227 239 230 199 229 245 262 265 231 200 196 194 200 210 208 205 178 165 160 174 170 174 179 176 168 163 172 176 177 182 179 166 181 185 179 172 187 185 180 179 178 179
228 156 194 181 159 197 184 201 205 214 235 228 231 242 224 229 230 221 193 13 357 171 178 187 192 189 174 173 168 163 168 192 165 169 170 177 171 172 171 175 178 182 186 197 184 192 192 192 196 192 190 176 181 194
198 167 180 241 187 191 212 249 249 238 209 219 229 216 216 233 220 89 28 33 11 82 146 159 172 163 161 154 150 162 153 161 180 167 165 171 170 177 177 188 188 187 177 198 207 205 207 200 202 195 197 185 180 200
281 193 183 167 181 221 268 257 218 191 202 234 240 223 227 294 56 358 351 10 329 96 104 107 102 124 147 127 138 137 140 128 127 130 141 152 154 159 167 180 127 63 165 187 213 215 208 205 203 193 195 190 178 190
215 200 180 176 157 211 231 251 232 210 241 242 252 285 45 67 72 28 347 3 297 212 144 123 114 118 116 110 108 118 147 159 156 158 163 161 161 162 184 179 158 168 183 158 91 68 191 198 192 184 191 186 176 178
194 187 211 190 215 216 223 219 266 292 270 279 285 258 134 105 64 328 359 172 178 197 67 127 147 137 124 119 113 94 66 64 68 214 182 165 146 134 131 137 144 148 148 165 163 137 100 153 140 189 190 181 176 179
161 189 221 212 236 244 235 241 246 264 265 259 273 264 95 134 130 56 21 347 187 174 136 132 114 117 122 134 130 109 93 88 70 70 103 111 100 99 97 97 103 136 154 164 164 170 173 176 180 184 190 194 185 194
191 202 216 222 237 241 241 234 231 244 248 240 262 204 158 165 83 25 14 307 146 137 126 144 135 124 129 96 78 85 106 117 113 104 94 109 107 113 115 110 109 113 138 158 178 208 196 199 195 201 200 206 206 200
207 209 220 247 243 218 179 195 225 329 260 275 251 213 170 129 149 131 71 22 11 129 110 97 102 98 98 95 100 98 86 86 74 62 65 63 58 62 75 66 59 53 54 284 240 218 211 221 226 223 211 217 224 229